StationID,Date,MaxTemp,MinTemp,Precipitation,Snowfall,SnowDepth
"USR0000AYAN","2010-08-26",55.04,51.08,,,
"USR0000AYAN","2010-08-27",68.00,46.04,,,
"USR0000AYAN","2010-08-28",64.04,46.94,,,
"USR0000AYAN","2010-08-29",57.02,46.04,,,
"USR0000AYAN","2010-08-30",60.08,46.04,,,
"USR0000AYAN","2010-08-31",57.92,46.04,,,
"USR0000AYAN","2010-09-01",57.92,51.08,,,
"USR0000AYAN","2010-09-02",60.08,42.98,,,
"USR0000AYAN","2010-09-03",53.06,39.92,,,
"USR0000AYAN","2010-09-04",55.94,48.92,,,
"USR0000AYAN","2010-09-05",66.02,48.02,,,
"USR0000AYAN","2010-09-06",57.92,42.98,,,
"USR0000AYAN","2010-09-07",60.98,50.00,,,
"USR0000AYAN","2010-09-08",57.92,48.92,,,
"USR0000AYAN","2010-09-09",59.00,48.02,,,
"USR0000AYAN","2010-09-10",64.04,44.96,,,
"USR0000AYAN","2010-09-11",64.04,41.00,,,
"USR0000AYAN","2010-09-12",62.96,37.94,,,
"USR0000AYAN","2010-09-13",55.04,39.02,,,
"USR0000AYAN","2010-09-14",57.92,41.00,,,
"USR0000AYAN","2010-09-15",57.92,44.96,,,
"USR0000AYAN","2010-09-16",59.00,35.06,,,
"USR0000AYAN","2010-09-17",57.92,35.96,,,
"USR0000AYAN","2010-09-18",53.96,42.08,,,
"USR0000AYAN","2010-09-19",55.04,48.02,,,
"USR0000AYAN","2010-09-20",51.98,50.00,,,
"USR0000AYAN","2010-09-21",51.98,50.00,,,
"USR0000AYAN","2010-09-22",53.06,46.94,,,
"USR0000AYAN","2010-09-23",55.94,48.02,,,
"USR0000AYAN","2010-09-24",55.94,42.08,,,
"USR0000AYAN","2010-09-25",55.94,35.96,,,
"USR0000AYAN","2010-09-26",48.92,39.02,,,
"USR0000AYAN","2010-09-27",51.08,33.08,,,
"USR0000AYAN","2010-09-28",55.94,44.06,,,
"USR0000AYAN","2010-09-29",53.06,42.08,,,
"USR0000AYAN","2010-09-30",50.00,37.94,,,
"USR0000AYAN","2010-10-01",46.04,41.00,,,
"USR0000AYAN","2010-10-02",51.08,30.02,,,
"USR0000AYAN","2010-10-03",53.06,30.02,,,
"USR0000AYAN","2010-10-04",51.08,30.92,,,
"USR0000AYAN","2010-10-05",51.08,35.06,,,
"USR0000AYAN","2010-10-06",51.98,30.02,,,
"USR0000AYAN","2010-10-07",48.92,35.06,,,
"USR0000AYAN","2010-10-08",53.06,33.98,,,
"USR0000AYAN","2010-10-09",44.96,39.92,,,
"USR0000AYAN","2010-10-10",46.04,35.96,,,
"USR0000AYAN","2010-10-11",48.02,32.00,,,
"USR0000AYAN","2010-10-12",39.02,32.00,,,
"USR0000AYAN","2010-10-13",42.08,33.98,,,
"USR0000AYAN","2010-10-14",44.96,32.00,,,
"USR0000AYAN","2010-10-15",46.94,28.94,,,
"USR0000AYAN","2010-10-16",51.08,44.06,,,
"USR0000AYAN","2010-10-17",50.00,30.92,,,
"USR0000AYAN","2010-10-18",51.08,28.94,,,
"USR0000AYAN","2010-10-19",51.98,33.98,,,
"USR0000AYAN","2010-10-20",48.02,39.02,,,
"USR0000AYAN","2010-10-21",48.02,37.04,,,
"USR0000AYAN","2010-10-22",44.06,37.04,,,
"USR0000AYAN","2010-10-23",46.04,35.06,,,
"USR0000AYAN","2010-10-24",48.02,30.92,,,
"USR0000AYAN","2010-10-25",48.92,28.04,,,
"USR0000AYAN","2010-10-26",37.94,28.94,,,
"USR0000AYAN","2010-10-27",46.04,30.02,,,
"USR0000AYAN","2010-10-28",44.96,33.08,,,
"USR0000AYAN","2010-10-29",37.04,32.00,,,
"USR0000AYAN","2010-10-30",39.02,26.96,,,
"USR0000AYAN","2010-10-31",44.96,30.02,,,
"USR0000AYAN","2010-11-01",42.08,24.98,,,
"USR0000AYAN","2010-11-02",41.00,23.00,,,
"USR0000AYAN","2010-11-03",37.04,21.02,,,
"USR0000AYAN","2010-11-04",37.94,24.08,,,
"USR0000AYAN","2010-11-05",35.06,26.06,,,
"USR0000AYAN","2010-11-06",39.02,30.02,,,
"USR0000AYAN","2010-11-07",42.08,26.96,,,
"USR0000AYAN","2010-11-08",32.00,24.98,,,
"USR0000AYAN","2010-11-09",44.06,21.92,,,
"USR0000AYAN","2010-11-10",42.08,37.04,,,
"USR0000AYAN","2010-11-11",44.06,35.06,,,
"USR0000AYAN","2010-11-12",42.98,28.94,,,
"USR0000AYAN","2010-11-13",44.96,26.06,,,
"USR0000AYAN","2010-11-14",41.00,24.08,,,
"USR0000AYAN","2010-11-15",30.92,23.00,,,
"USR0000AYAN","2010-11-16",26.06,17.96,,,
"USR0000AYAN","2010-11-17",37.04,17.96,,,
"USR0000AYAN","2010-11-18",46.04,17.96,,,
"USR0000AYAN","2010-11-19",39.92,21.92,,,
"USR0000AYAN","2010-11-20",44.06,39.02,,,
"USR0000AYAN","2010-11-21",44.06,41.00,,,
"USR0000AYAN","2010-11-22",44.96,42.08,,,
"USR0000AYAN","2010-11-23",44.06,39.02,,,
"USR0000AYAN","2010-11-24",44.06,32.00,,,
"USR0000AYAN","2010-11-25",33.98,30.02,,,
"USR0000AYAN","2010-11-26",39.92,32.00,,,
"USR0000AYAN","2010-11-27",42.08,33.08,,,
"USR0000AYAN","2010-11-28",35.06,19.04,,,
"USR0000AYAN","2010-11-29",26.96,19.04,,,
"USR0000AYAN","2010-11-30",42.98,26.06,,,
"USR0000AYAN","2010-12-01",37.04,26.06,,,
"USR0000AYAN","2010-12-02",41.00,30.02,,,
"USR0000AYAN","2010-12-03",42.98,30.92,,,
"USR0000AYAN","2010-12-04",35.06,23.00,,,
"USR0000AYAN","2010-12-05",33.98,26.06,,,
"USR0000AYAN","2010-12-06",32.00,21.02,,,
"USR0000AYAN","2010-12-07",28.04,19.04,,,
"USR0000AYAN","2010-12-08",28.04,17.96,,,
"USR0000AYAN","2010-12-09",15.98,14.00,,,
"USR0000AYAN","2010-12-10",15.08,8.06,,,
"USR0000AYAN","2010-12-11",24.08,8.96,,,
"USR0000AYAN","2010-12-12",30.92,14.00,,,
"USR0000AYAN","2010-12-13",35.96,19.04,,,
"USR0000AYAN","2010-12-14",30.02,10.94,,,
"USR0000AYAN","2010-12-15",12.92,8.06,,,
"USR0000AYAN","2010-12-16",21.02,8.96,,,
"USR0000AYAN","2010-12-17",28.94,17.96,,,
"USR0000AYAN","2010-12-18",42.98,24.08,,,
"USR0000AYAN","2010-12-19",48.92,28.04,,,
"USR0000AYAN","2010-12-20",28.04,17.06,,,
"USR0000AYAN","2010-12-21",17.06,8.06,,,
"USR0000AYAN","2010-12-22",17.06,8.96,,,
"USR0000AYAN","2010-12-23",30.92,15.98,,,
"USR0000AYAN","2010-12-24",28.94,8.06,,,
"USR0000AYAN","2010-12-25",8.96,1.94,,,
"USR0000AYAN","2010-12-26",15.08,3.92,,,
"USR0000AYAN","2010-12-27",19.04,14.00,,,
"USR0000AYAN","2010-12-28",23.00,6.98,,,
"USR0000AYAN","2010-12-29",39.02,24.98,,,
"USR0000AYAN","2010-12-30",39.02,33.98,,,
"USR0000AYAN","2010-12-31",39.92,23.00,,,
"USR0000AYAN","2011-01-01",42.08,35.06,,,
"USR0000AYAN","2011-01-02",39.92,33.08,,,
"USR0000AYAN","2011-01-03",39.02,33.98,,,
"USR0000AYAN","2011-01-04",37.94,26.96,,,
"USR0000AYAN","2011-01-05",32.00,23.00,,,
"USR0000AYAN","2011-01-06",37.04,21.02,,,
"USR0000AYAN","2011-01-07",35.96,21.02,,,
"USR0000AYAN","2011-01-08",37.94,33.08,,,
"USR0000AYAN","2011-01-09",35.96,32.00,,,
"USR0000AYAN","2011-01-10",35.06,23.00,,,
"USR0000AYAN","2011-01-11",46.04,21.02,,,
"USR0000AYAN","2011-01-12",37.94,19.04,,,
"USR0000AYAN","2011-01-13",33.98,19.94,,,
"USR0000AYAN","2011-01-14",32.00,26.96,,,
"USR0000AYAN","2011-01-15",32.00,28.94,,,
"USR0000AYAN","2011-01-16",30.92,14.00,,,
"USR0000AYAN","2011-01-17",26.96,12.92,,,
"USR0000AYAN","2011-01-18",35.06,21.02,,,
"USR0000AYAN","2011-01-19",39.02,33.98,,,
"USR0000AYAN","2011-01-20",39.02,35.06,,,
"USR0000AYAN","2011-01-21",37.04,33.98,,,
"USR0000AYAN","2011-01-22",37.94,30.92,,,
"USR0000AYAN","2011-01-23",39.92,35.06,,,
"USR0000AYAN","2011-01-24",39.92,35.96,,,
"USR0000AYAN","2011-01-25",37.94,26.96,,,
"USR0000AYAN","2011-01-26",35.06,19.94,,,
"USR0000AYAN","2011-01-27",39.92,33.08,,,
"USR0000AYAN","2011-01-28",39.02,33.08,,,
"USR0000AYAN","2011-01-29",39.02,33.98,,,
"USR0000AYAN","2011-01-30",37.04,33.08,,,
"USR0000AYAN","2011-01-31",37.94,23.00,,,
"USR0000AYAN","2011-02-01",33.08,26.96,,,
"USR0000AYAN","2011-02-02",30.92,24.98,,,
"USR0000AYAN","2011-02-03",32.00,24.98,,,
"USR0000AYAN","2011-02-04",37.94,15.98,,,
"USR0000AYAN","2011-02-05",39.92,32.00,,,
"USR0000AYAN","2011-02-06",39.92,33.08,,,
"USR0000AYAN","2011-02-07",39.92,33.98,,,
"USR0000AYAN","2011-02-08",39.92,35.96,,,
"USR0000AYAN","2011-02-09",44.96,32.00,,,
"USR0000AYAN","2011-02-10",35.06,12.92,,,
"USR0000AYAN","2011-02-11",24.08,10.04,,,
"USR0000AYAN","2011-02-12",26.06,10.04,,,
"USR0000AYAN","2011-02-13",15.08,6.08,,,
"USR0000AYAN","2011-02-14",17.96,6.08,,,
"USR0000AYAN","2011-02-15",37.04,19.04,,,
"USR0000AYAN","2011-02-16",39.02,26.96,,,
"USR0000AYAN","2011-02-17",37.94,23.00,,,
"USR0000AYAN","2011-02-18",37.04,24.08,,,
"USR0000AYAN","2011-02-19",37.94,26.06,,,
"USR0000AYAN","2011-02-20",41.00,33.08,,,
"USR0000AYAN","2011-02-21",39.92,26.06,,,
"USR0000AYAN","2011-02-22",41.00,21.02,,,
"USR0000AYAN","2011-02-23",39.92,26.96,,,
"USR0000AYAN","2011-02-24",37.94,35.06,,,
"USR0000AYAN","2011-02-25",44.06,28.94,,,
"USR0000AYAN","2011-02-26",28.94,17.06,,,
"USR0000AYAN","2011-02-27",21.92,15.08,,,
"USR0000AYAN","2011-02-28",35.06,19.94,,,
"USR0000AYAN","2011-03-01",41.00,21.02,,,
"USR0000AYAN","2011-03-02",30.92,21.02,,,
"USR0000AYAN","2011-03-03",30.02,17.06,,,
"USR0000AYAN","2011-03-04",39.02,21.92,,,
"USR0000AYAN","2011-03-05",37.94,15.98,,,
"USR0000AYAN","2011-03-06",44.06,24.08,,,
"USR0000AYAN","2011-03-07",39.92,28.94,,,
"USR0000AYAN","2011-03-08",44.96,26.06,,,
"USR0000AYAN","2011-03-09",44.06,23.00,,,
"USR0000AYAN","2011-03-10",39.02,17.96,,,
"USR0000AYAN","2011-03-11",39.02,19.94,,,
"USR0000AYAN","2011-03-12",37.04,19.04,,,
"USR0000AYAN","2011-03-13",41.00,15.98,,,
"USR0000AYAN","2011-03-14",37.94,17.06,,,
"USR0000AYAN","2011-03-15",39.92,26.06,,,
"USR0000AYAN","2011-03-16",30.92,24.08,,,
"USR0000AYAN","2011-03-17",39.02,21.92,,,
"USR0000AYAN","2011-03-18",37.04,32.00,,,
"USR0000AYAN","2011-03-19",39.02,33.98,,,
"USR0000AYAN","2011-03-20",42.98,30.92,,,
"USR0000AYAN","2011-03-21",41.00,30.02,,,
"USR0000AYAN","2011-03-22",44.06,26.06,,,
"USR0000AYAN","2011-03-23",42.98,24.98,,,
"USR0000AYAN","2011-03-24",41.00,30.02,,,
"USR0000AYAN","2011-03-25",41.00,26.06,,,
"USR0000AYAN","2011-03-26",39.02,24.98,,,
"USR0000AYAN","2011-03-27",37.04,24.08,,,
"USR0000AYAN","2011-03-28",39.02,26.06,,,
"USR0000AYAN","2011-03-29",44.96,28.94,,,
"USR0000AYAN","2011-03-30",39.92,28.04,,,
"USR0000AYAN","2011-03-31",35.96,19.94,,,
"USR0000AYAN","2011-04-01",39.02,23.00,,,
"USR0000AYAN","2011-04-02",37.04,33.08,,,
"USR0000AYAN","2011-04-03",44.96,35.96,,,
"USR0000AYAN","2011-04-04",39.02,28.04,,,
"USR0000AYAN","2011-04-05",33.98,21.92,,,
"USR0000AYAN","2011-04-06",39.92,17.06,,,
"USR0000AYAN","2011-04-07",44.96,35.96,,,
"USR0000AYAN","2011-04-08",39.92,30.02,,,
"USR0000AYAN","2011-04-09",35.96,26.96,,,
"USR0000AYAN","2011-04-10",39.92,24.98,,,
"USR0000AYAN","2011-04-11",26.06,17.06,,,
"USR0000AYAN","2011-04-12",24.08,15.08,,,
"USR0000AYAN","2011-04-13",30.02,21.92,,,
"USR0000AYAN","2011-04-14",39.02,23.00,,,
"USR0000AYAN","2011-04-15",46.94,23.00,,,
"USR0000AYAN","2011-04-16",46.04,24.98,,,
"USR0000AYAN","2011-04-17",48.92,23.00,,,
"USR0000AYAN","2011-04-18",50.00,19.94,,,
"USR0000AYAN","2011-04-19",48.02,21.92,,,
"USR0000AYAN","2011-04-20",46.94,21.02,,,
"USR0000AYAN","2011-04-21",39.92,30.92,,,
"USR0000AYAN","2011-04-22",42.08,37.04,,,
"USR0000AYAN","2011-04-23",44.96,39.02,,,
"USR0000AYAN","2011-04-24",42.08,37.04,,,
"USR0000AYAN","2011-04-25",39.02,33.08,,,
"USR0000AYAN","2011-04-26",41.00,28.04,,,
"USR0000AYAN","2011-04-27",41.00,23.00,,,
"USR0000AYAN","2011-04-28",41.00,37.04,,,
"USR0000AYAN","2011-04-29",44.06,33.08,,,
"USR0000AYAN","2011-04-30",44.96,30.92,,,
"USR0000AYAN","2011-05-01",44.06,35.06,,,
"USR0000AYAN","2011-05-02",42.98,33.98,,,
"USR0000AYAN","2011-05-03",44.06,33.98,,,
"USR0000AYAN","2011-05-04",46.04,37.04,,,
"USR0000AYAN","2011-05-05",53.06,33.98,,,
"USR0000AYAN","2011-05-06",57.02,39.02,,,
"USR0000AYAN","2011-05-07",42.98,37.94,,,
"USR0000AYAN","2011-05-08",42.08,35.96,,,
"USR0000AYAN","2011-05-09",48.92,35.06,,,
"USR0000AYAN","2011-05-10",51.98,35.96,,,
"USR0000AYAN","2011-05-11",48.02,35.06,,,
"USR0000AYAN","2011-05-12",53.06,30.92,,,
"USR0000AYAN","2011-05-13",46.04,28.94,,,
"USR0000AYAN","2011-05-14",42.08,39.02,,,
"USR0000AYAN","2011-05-15",39.92,39.02,,,
"USR0000AYAN","2011-05-16",48.92,37.94,,,
"USR0000AYAN","2011-05-17",46.94,39.02,,,
"USR0000AYAN","2011-05-18",44.96,39.92,,,
"USR0000AYAN","2011-05-19",48.02,39.02,,,
"USR0000AYAN","2011-05-20",42.98,41.00,,,
"USR0000AYAN","2011-05-21",44.06,39.92,,,
"USR0000AYAN","2011-05-22",46.04,39.92,,,
"USR0000AYAN","2011-05-23",44.96,39.02,,,
"USR0000AYAN","2011-05-24",42.98,42.08,,,
"USR0000AYAN","2011-05-25",44.06,42.08,,,
"USR0000AYAN","2011-05-26",53.96,42.98,,,
"USR0000AYAN","2011-05-27",51.08,37.04,,,
"USR0000AYAN","2011-05-28",48.92,41.00,,,
"USR0000AYAN","2011-05-29",59.00,39.92,,,
"USR0000AYAN","2011-05-30",53.06,32.00,,,
"USR0000AYAN","2011-05-31",44.96,42.08,,,
"USR0000AYAN","2011-06-01",53.96,33.98,,,
"USR0000AYAN","2011-06-02",46.94,33.98,,,
"USR0000AYAN","2011-06-03",46.04,42.08,,,
"USR0000AYAN","2011-06-04",50.00,41.00,,,
"USR0000AYAN","2011-06-05",53.06,39.02,,,
"USR0000AYAN","2011-06-06",44.96,42.98,,,
"USR0000AYAN","2011-06-07",46.94,42.08,,,
"USR0000AYAN","2011-06-08",55.94,42.08,,,
"USR0000AYAN","2011-06-09",48.92,42.08,,,
"USR0000AYAN","2011-06-10",46.94,42.08,,,
"USR0000AYAN","2011-06-11",46.94,44.06,,,
"USR0000AYAN","2011-06-12",50.00,42.98,,,
"USR0000AYAN","2011-06-13",51.98,41.00,,,
"USR0000AYAN","2011-06-14",53.06,35.06,,,
"USR0000AYAN","2011-06-15",51.98,32.00,,,
"USR0000AYAN","2011-06-16",46.94,44.96,,,
"USR0000AYAN","2011-06-17",50.00,44.96,,,
"USR0000AYAN","2011-06-18",51.98,44.06,,,
"USR0000AYAN","2011-06-19",53.96,44.06,,,
"USR0000AYAN","2011-06-20",57.92,46.94,,,
"USR0000AYAN","2011-06-21",60.98,46.94,,,
"USR0000AYAN","2011-06-22",55.94,42.08,,,
"USR0000AYAN","2011-06-23",48.92,44.06,,,
"USR0000AYAN","2011-06-24",53.06,44.96,,,
"USR0000AYAN","2011-06-25",55.94,46.04,,,
"USR0000AYAN","2011-06-26",50.00,46.94,,,
"USR0000AYAN","2011-06-27",55.94,44.96,,,
"USR0000AYAN","2011-06-28",53.06,42.98,,,
"USR0000AYAN","2011-06-29",57.92,39.92,,,
"USR0000AYAN","2011-06-30",60.98,42.08,,,
"USR0000AYAN","2011-07-01",64.04,46.94,,,
"USR0000AYAN","2011-07-02",55.94,44.06,,,
"USR0000AYAN","2011-07-03",55.04,42.98,,,
"USR0000AYAN","2011-07-04",60.98,42.98,,,
"USR0000AYAN","2011-07-05",55.94,42.08,,,
"USR0000AYAN","2011-09-20",55.04,46.04,,,
"USR0000AYAN","2011-09-21",51.98,39.92,,,
"USR0000AYAN","2011-09-22",55.04,37.04,,,
"USR0000AYAN","2011-09-23",57.02,35.06,,,
"USR0000AYAN","2011-09-24",55.04,44.06,,,
"USR0000AYAN","2011-09-25",48.02,35.96,,,
"USR0000AYAN","2011-09-26",55.04,37.04,,,
"USR0000AYAN","2011-09-27",55.04,33.08,,,
"USR0000AYAN","2011-09-28",48.92,33.98,,,
"USR0000AYAN","2011-09-29",48.92,30.92,,,
"USR0000AYAN","2011-09-30",48.92,42.98,,,
"USR0000AYAN","2011-10-01",53.96,41.00,,,
"USR0000AYAN","2011-10-02",48.92,37.04,,,
"USR0000AYAN","2011-10-03",50.00,33.98,,,
"USR0000AYAN","2011-10-04",55.94,33.08,,,
"USR0000AYAN","2011-10-05",57.02,44.06,,,
"USR0000AYAN","2011-10-06",51.08,35.96,,,
"USR0000AYAN","2011-10-07",51.98,32.00,,,
"USR0000AYAN","2011-10-08",48.92,28.94,,,
"USR0000AYAN","2011-10-09",51.98,32.00,,,
"USR0000AYAN","2011-10-10",51.08,35.06,,,
"USR0000AYAN","2011-10-11",44.06,37.94,,,
"USR0000AYAN","2011-10-12",50.00,35.96,,,
"USR0000AYAN","2011-10-13",48.92,33.98,,,
"USR0000AYAN","2011-10-14",48.02,42.08,,,
"USR0000AYAN","2011-10-15",51.08,39.02,,,
"USR0000AYAN","2011-10-16",51.08,30.92,,,
"USR0000AYAN","2011-10-17",51.08,28.94,,,
"USR0000AYAN","2011-10-18",46.04,26.96,,,
"USR0000AYAN","2011-10-19",44.06,26.96,,,
"USR0000AYAN","2011-10-20",46.04,41.00,,,
"USR0000AYAN","2011-10-21",46.94,44.06,,,
"USR0000AYAN","2011-10-22",51.08,35.06,,,
"USR0000AYAN","2011-10-23",46.94,32.00,,,
"USR0000AYAN","2011-10-24",46.94,42.98,,,
"USR0000AYAN","2011-10-25",42.08,35.96,,,
"USR0000AYAN","2011-10-26",46.04,35.06,,,
"USR0000AYAN","2011-10-27",42.08,30.02,,,
"USR0000AYAN","2011-10-28",39.92,28.94,,,
"USR0000AYAN","2011-10-29",42.08,33.98,,,
"USR0000AYAN","2011-10-30",44.96,33.08,,,
"USR0000AYAN","2011-10-31",46.04,30.92,,,
"USR0000AYAN","2011-11-01",35.96,24.98,,,
"USR0000AYAN","2011-11-02",37.94,30.92,,,
"USR0000AYAN","2011-11-03",46.94,35.96,,,
"USR0000AYAN","2011-11-04",42.98,33.98,,,
"USR0000AYAN","2011-11-05",44.06,33.08,,,
"USR0000AYAN","2011-11-06",39.92,32.00,,,
"USR0000AYAN","2011-11-07",30.92,21.92,,,
"USR0000AYAN","2011-11-08",39.02,21.92,,,
"USR0000AYAN","2011-11-09",42.98,33.08,,,
"USR0000AYAN","2011-11-10",41.00,30.02,,,
"USR0000AYAN","2011-11-11",44.06,33.08,,,
"USR0000AYAN","2011-11-12",42.08,28.94,,,
"USR0000AYAN","2011-11-13",35.06,28.04,,,
"USR0000AYAN","2011-11-14",37.04,28.94,,,
"USR0000AYAN","2011-11-15",30.02,10.04,,,
"USR0000AYAN","2011-11-16",21.92,14.00,,,
"USR0000AYAN","2011-11-17",28.94,12.92,,,
"USR0000AYAN","2011-11-18",42.98,26.06,,,
"USR0000AYAN","2011-11-19",37.94,30.92,,,
"USR0000AYAN","2011-11-20",37.04,23.00,,,
"USR0000AYAN","2011-11-21",23.00,5.00,,,
"USR0000AYAN","2011-11-22",17.06,1.94,,,
"USR0000AYAN","2011-11-23",15.98,8.96,,,
"USR0000AYAN","2011-11-24",12.02,6.08,,,
"USR0000AYAN","2011-11-25",15.98,10.04,,,
"USR0000AYAN","2011-11-26",24.08,6.98,,,
"USR0000AYAN","2011-11-27",32.00,21.02,,,
"USR0000AYAN","2011-11-28",30.02,10.04,,,
"USR0000AYAN","2011-11-29",42.08,26.96,,,
"USR0000AYAN","2011-11-30",42.08,30.92,,,
"USR0000AYAN","2011-12-01",42.08,28.94,,,
"USR0000AYAN","2011-12-02",41.00,35.96,,,
"USR0000AYAN","2011-12-03",42.98,37.94,,,
"USR0000AYAN","2011-12-04",41.00,23.00,,,
"USR0000AYAN","2011-12-05",37.04,23.00,,,
"USR0000AYAN","2011-12-06",39.02,37.04,,,
"USR0000AYAN","2011-12-07",42.98,39.02,,,
"USR0000AYAN","2011-12-08",42.98,35.06,,,
"USR0000AYAN","2011-12-09",41.00,30.92,,,
"USR0000AYAN","2011-12-10",42.98,32.00,,,
"USR0000AYAN","2011-12-11",37.04,32.00,,,
"USR0000AYAN","2011-12-12",39.02,17.96,,,
"USR0000AYAN","2011-12-13",35.96,17.96,,,
"USR0000AYAN","2011-12-14",37.04,23.00,,,
"USR0000AYAN","2011-12-15",39.92,33.98,,,
"USR0000AYAN","2011-12-16",39.92,32.00,,,
"USR0000AYAN","2011-12-17",41.00,33.98,,,
"USR0000AYAN","2011-12-18",41.00,28.04,,,
"USR0000AYAN","2011-12-19",37.04,23.00,,,
"USR0000AYAN","2011-12-20",41.00,28.94,,,
"USR0000AYAN","2011-12-21",32.00,21.02,,,
"USR0000AYAN","2011-12-22",33.08,19.94,,,
"USR0000AYAN","2011-12-23",26.06,15.98,,,
"USR0000AYAN","2011-12-24",15.98,8.96,,,
"USR0000AYAN","2011-12-25",12.02,3.92,,,
"USR0000AYAN","2011-12-26",15.98,1.94,,,
"USR0000AYAN","2011-12-27",17.96,6.98,,,
"USR0000AYAN","2011-12-28",17.06,10.04,,,
"USR0000AYAN","2011-12-29",14.00,5.00,,,
"USR0000AYAN","2011-12-30",8.96,1.94,,,
"USR0000AYAN","2011-12-31",6.98,-0.94,,,
"USR0000AYAN","2012-01-01",26.96,-0.94,,,
"USR0000AYAN","2012-01-02",21.92,6.98,,,
"USR0000AYAN","2012-01-03",8.06,3.92,,,
"USR0000AYAN","2012-01-04",33.08,5.00,,,
"USR0000AYAN","2012-01-05",21.02,1.94,,,
"USR0000AYAN","2012-01-06",23.00,10.94,,,
"USR0000AYAN","2012-01-07",17.96,5.00,,,
"USR0000AYAN","2012-01-08",21.92,3.92,,,
"USR0000AYAN","2012-01-09",33.98,10.94,,,
"USR0000AYAN","2012-01-10",37.04,28.04,,,
"USR0000AYAN","2012-01-11",24.98,6.08,,,
"USR0000AYAN","2012-01-12",8.96,-0.04,,,
"USR0000AYAN","2012-01-13",17.96,6.98,,,
"USR0000AYAN","2012-01-14",30.92,12.02,,,
"USR0000AYAN","2012-01-15",33.08,26.96,,,
"USR0000AYAN","2012-01-16",30.92,14.00,,,
"USR0000AYAN","2012-01-17",28.04,10.94,,,
"USR0000AYAN","2012-01-18",28.94,8.96,,,
"USR0000AYAN","2012-01-19",21.92,6.98,,,
"USR0000AYAN","2012-01-20",24.08,10.04,,,
"USR0000AYAN","2012-01-21",17.06,6.98,,,
"USR0000AYAN","2012-01-22",6.08,-0.04,,,
"USR0000AYAN","2012-01-23",10.94,3.02,,,
"USR0000AYAN","2012-01-24",6.08,-5.98,,,
"USR0000AYAN","2012-01-25",3.02,-5.98,,,
"USR0000AYAN","2012-01-26",1.04,-5.08,,,
"USR0000AYAN","2012-01-27",10.04,-0.94,,,
"USR0000AYAN","2012-01-28",28.94,10.04,,,
"USR0000AYAN","2012-01-29",35.06,28.94,,,
"USR0000AYAN","2012-01-30",33.08,24.08,,,
"USR0000AYAN","2012-01-31",35.06,26.06,,,
"USR0000AYAN","2012-02-01",37.04,24.08,,,
"USR0000AYAN","2012-02-02",24.08,-2.92,,,
"USR0000AYAN","2012-02-03",30.92,-0.04,,,
"USR0000AYAN","2012-02-04",35.96,33.98,,,
"USR0000AYAN","2012-02-05",37.94,35.06,,,
"USR0000AYAN","2012-02-06",37.94,32.00,,,
"USR0000AYAN","2012-02-07",44.96,35.96,,,
"USR0000AYAN","2012-02-08",42.08,35.96,,,
"USR0000AYAN","2012-02-09",37.04,35.06,,,
"USR0000AYAN","2012-02-10",35.96,33.08,,,
"USR0000AYAN","2012-02-11",37.04,33.98,,,
"USR0000AYAN","2012-02-12",35.96,33.08,,,
"USR0000AYAN","2012-02-13",39.02,26.06,,,
"USR0000AYAN","2012-02-14",35.96,30.92,,,
"USR0000AYAN","2012-02-15",39.02,33.08,,,
"USR0000AYAN","2012-02-16",35.96,33.08,,,
"USR0000AYAN","2012-02-17",39.92,33.08,,,
"USR0000AYAN","2012-02-18",41.00,30.02,,,
"USR0000AYAN","2012-02-19",35.06,32.00,,,
"USR0000AYAN","2012-02-20",41.00,28.04,,,
"USR0000AYAN","2012-02-21",41.00,19.04,,,
"USR0000AYAN","2012-02-22",35.96,21.02,,,
"USR0000AYAN","2012-02-23",33.98,19.94,,,
"USR0000AYAN","2012-02-24",33.98,15.98,,,
"USR0000AYAN","2012-02-25",37.94,33.98,,,
"USR0000AYAN","2012-02-26",41.00,30.92,,,
"USR0000AYAN","2012-02-27",33.08,6.98,,,
"USR0000AYAN","2012-02-28",17.96,1.04,,,
"USR0000AYAN","2012-02-29",26.06,6.98,,,
"USR0000AYAN","2012-03-01",35.96,21.92,,,
"USR0000AYAN","2012-03-02",24.98,5.00,,,
"USR0000AYAN","2012-03-03",12.92,1.94,,,
"USR0000AYAN","2012-03-04",28.04,-0.04,,,
"USR0000AYAN","2012-03-05",41.00,19.94,,,
"USR0000AYAN","2012-03-06",41.00,24.08,,,
"USR0000AYAN","2012-03-07",37.94,19.04,,,
"USR0000AYAN","2012-03-08",30.92,14.00,,,
"USR0000AYAN","2012-03-09",24.08,8.96,,,
"USR0000AYAN","2012-03-10",15.98,5.00,,,
"USR0000AYAN","2012-03-11",12.02,6.08,,,
"USR0000AYAN","2012-03-12",19.04,6.08,,,
"USR0000AYAN","2012-03-13",24.98,6.08,,,
"USR0000AYAN","2012-03-14",23.00,6.98,,,
"USR0000AYAN","2012-03-15",15.08,6.98,,,
"USR0000AYAN","2012-03-16",19.04,8.06,,,
"USR0000AYAN","2012-03-17",21.02,10.94,,,
"USR0000AYAN","2012-03-18",19.04,10.94,,,
"USR0000AYAN","2012-03-19",17.06,8.06,,,
"USR0000AYAN","2012-03-20",10.94,3.92,,,
"USR0000AYAN","2012-03-21",10.04,3.02,,,
"USR0000AYAN","2012-03-23",42.98,30.92,,,
"USR0000AYAN","2012-03-24",41.00,26.96,,,
"USR0000AYAN","2012-03-25",39.92,23.00,,,
"USR0000AYAN","2012-03-26",35.96,32.00,,,
"USR0000AYAN","2012-03-27",39.02,32.00,,,
"USR0000AYAN","2012-03-28",39.92,28.94,,,
"USR0000AYAN","2012-03-29",44.06,28.04,,,
"USR0000AYAN","2012-03-30",44.06,30.02,,,
"USR0000AYAN","2012-03-31",37.04,28.04,,,
"USR0000AYAN","2012-04-01",35.96,26.96,,,
"USR0000AYAN","2012-04-02",28.94,24.08,,,
"USR0000AYAN","2012-04-03",39.92,26.96,,,
"USR0000AYAN","2012-04-04",37.04,30.92,,,
"USR0000AYAN","2012-04-05",33.98,17.06,,,
"USR0000AYAN","2012-04-06",37.04,14.00,,,
"USR0000AYAN","2012-04-07",39.02,30.92,,,
"USR0000AYAN","2012-04-08",37.04,33.08,,,
"USR0000AYAN","2012-04-09",42.08,33.08,,,
"USR0000AYAN","2012-04-10",37.94,33.98,,,
"USR0000AYAN","2012-04-11",46.94,30.92,,,
"USR0000AYAN","2012-04-12",44.96,28.94,,,
"USR0000AYAN","2012-04-13",44.96,28.94,,,
"USR0000AYAN","2012-04-14",48.92,37.94,,,
"USR0000AYAN","2012-04-15",42.08,35.06,,,
"USR0000AYAN","2012-04-16",44.06,37.04,,,
"USR0000AYAN","2012-04-17",44.06,33.98,,,
"USR0000AYAN","2012-04-18",44.06,33.08,,,
"USR0000AYAN","2012-04-19",53.06,35.96,,,
"USR0000AYAN","2012-04-20",48.92,30.02,,,
"USR0000AYAN","2012-04-21",46.04,28.04,,,
"USR0000AYAN","2012-04-22",41.00,26.06,,,
"USR0000AYAN","2012-04-23",37.94,35.06,,,
"USR0000AYAN","2012-04-24",53.06,35.06,,,
"USR0000AYAN","2012-04-25",55.04,39.02,,,
"USR0000AYAN","2012-04-26",59.00,33.08,,,
"USR0000AYAN","2012-04-27",48.02,28.94,,,
"USR0000AYAN","2012-04-28",46.94,35.06,,,
"USR0000AYAN","2012-04-29",48.92,35.06,,,
"USR0000AYAN","2012-04-30",41.00,30.02,,,
"USR0000AYAN","2012-05-01",42.08,30.02,,,
"USR0000AYAN","2012-05-02",46.04,33.08,,,
"USR0000AYAN","2012-05-03",46.94,28.94,,,
"USR0000AYAN","2012-05-04",41.00,26.06,,,
"USR0000AYAN","2012-05-05",42.08,26.96,,,
"USR0000AYAN","2012-05-06",46.04,32.00,,,
"USR0000AYAN","2012-05-07",51.08,28.94,,,
"USR0000AYAN","2012-05-08",50.00,30.02,,,
"USR0000AYAN","2012-05-09",39.02,33.98,,,
"USR0000AYAN","2012-05-10",48.02,32.00,,,
"USR0000AYAN","2012-05-11",42.98,28.94,,,
"USR0000AYAN","2012-05-12",37.94,21.92,,,
"USR0000AYAN","2012-05-13",41.00,23.00,,,
"USR0000AYAN","2012-05-14",48.02,32.00,,,
"USR0000AYAN","2012-05-15",44.06,33.98,,,
"USR0000AYAN","2012-05-16",46.04,39.92,,,
"USR0000AYAN","2012-05-17",42.98,39.92,,,
"USR0000AYAN","2012-05-18",42.08,37.94,,,
"USR0000AYAN","2012-05-19",44.96,35.96,,,
"USR0000AYAN","2012-05-20",50.00,33.98,,,
"USR0000AYAN","2012-05-21",53.96,30.02,,,